Regional Weather Roundup
Issued by NWS Huntsville, AL

Home | Current Version | Previous Version | Text Only | Print | Product List | Glossary On
Versions: 1 2 3 4 5 6 7 8 9 10 11 12 13 14 15 16 17 18 19 20 21 22 23 24 25 26 27 28
000
ASUS44 KHUN 281110
RWRHUN

WEATHER ROUNDUP FOR THE TENNESSEE VALLEY
NATIONAL WEATHER SERVICE HUNTSVILLE AL
600 AM CDT SUN MAY 28 2017

ALZ001>004-281200-
NORTHWEST ALABAMA

CITY           SKY/WX    TMP DP  RH WIND       PRES   REMARKS
COURTLAND HCN    N/A     64 N/A N/A S3          N/A
RUSSELLVILLE     N/A     63 N/A N/A MISG        N/A
SHOALS AIRPORT LGT RAIN  65  62  90 SW6       29.99R
SHOALS TVA RES   N/A     64 N/A N/A MISG        N/A
$$

ALZ005>007-016-281200-
NORTH CENTRAL ALABAMA

CITY           SKY/WX    TMP DP  RH WIND       PRES   REMARKS
CULLMAN AG STN   N/A     64 N/A N/A CALM        N/A
DECATUR AP     LGT RAIN  65  64  97 W8        29.97R
HUNTSVILLE AP  LGT RAIN  66  66 100 SW9       29.95S
MERIDIANVILLE  LGT RAIN  63  61  94 SE3       29.91F
REDSTONE ARSN  LGT RAIN  64  63  97 SW8       29.94S
VINEMONT AP    LGT RAIN  63  62  96 CALM      29.99S
$$

ALZ008>010-281200-
NORTHEAST ALABAMA

CITY           SKY/WX    TMP DP  RH WIND       PRES   REMARKS
ALBERTVILLE    CLOUDY    63  63 100 S3        29.95S
FORT PAYNE     CLOUDY    63  61  94 SW9       29.96R
SCOTTSBORO AP  CLOUDY    64  64 100 CALM      29.96R
SCOTTSBORO HCN   N/A     64 N/A N/A MISG        N/A
VALLEY HEAD      N/A     63 N/A N/A MISG        N/A
$$

TNZ076-096-097-281200-
SOUTHEASTERN MIDDLE TENNESSEE

CITY           SKY/WX    TMP DP  RH WIND       PRES   REMARKS
TULLAHOMA      MOCLDY    63  63 100 S5        29.91R
WINCHESTER     CLOUDY    63  63 100 SW7         N/A
$$

...SURROUNDING SITES...

CITY           SKY/WX    TMP DP  RH WIND       PRES   REMARKS
ATLANTA        CLOUDY    65  64  97 S8        29.96F
ANNISTON       LGT RAIN  66  64  93 NE3       29.97R
BIRMINGHAM     CLOUDY    67  65  93 CALM      29.99R
CHATTANOOGA    CLOUDY    65  62  90 S7        29.88R FOG
CORINTH        RAIN      64  63  94 SW10      29.99R
DALTON         CLOUDY    63  63 100 SW5       29.90R
GADSDEN        CLOUDY    65  65 100 CALM      29.96R
GOLDEN TRNGL   CLOUDY    64  61  88 CALM      29.99S
JACKSON TN     RAIN      64  64 100 SW20G25   29.95R
MEMPHIS        TSTM      66  64  93 S9        30.01R
NASHVILLE      CLOUDY    65  62  90 S10       29.81F
OXFORD MS      HVY RAIN  63  63 100 CALM      30.05S
ROME           CLOUDY    65  65 100 SW8       29.93R
SAVANNAH       CLOUDY    64  63  94 SW10G17   29.96R
SELMER         CLOUDY    63  63 100 VRB7G15   29.96R
TUPELO         RAIN      65  63  93 SE3       30.03R
TUSCALOOSA     CLOUDY    67  65  93 N5        29.99R
$$

...GULF COAST WEATHER...

CITY           SKY/WX    TMP DP  RH WIND       PRES   REMARKS
GULFPORT       CLOUDY    80  76  87 W6        29.97R
PASCAGOULA     LGT RAIN  78  74  87 VRB3      29.98R
MOBILE         MOCLDY    75  73  93 CALM      30.00R
GULF SHORES    CLOUDY    77  77 100 W5        29.99R
PENSACOLA      CLOUDY    78  75  90 W3        29.99R
DESTIN         CLOUDY    80  80 100 W3        30.00R
PANAMA CITY    CLEAR     77  74  92 W6        30.00R
APPALACHICOLA  PTCLDY    76  76 100 W5        29.99R
$$





USA.gov is the U.S. government's official web portal to all federal, state and local government web resources and services.